Terminal Aerodrome Forecast
Issued by NWS Topeka, KS

Home | Current Version | Previous Version | Graphics & Text | Print | Product List | Glossary On
Versions: 1 2 3 4 5 6 7 8 9 10 11 12 13 14 15 16 17 18 19
000
FTUS43 KTOP 101100
TAFTOP
TAF
KTOP 101124Z 1012/1112 14008KT P6SM BKN010
     FM101700 14012G22KT P6SM SCT100
     FM110000 15007KT P6SM BKN100=

USA.gov is the U.S. government's official web portal to all federal, state and local government web resources and services.